N9DRW Weather Reports


Display with metric or nautical units.
time (UTC)temp
F
wind
direction
speed
MPH
gust
MPH
rain 1hr
in
rain 24hr
in
rain mn
in
humidity
%
barometer
mb
20260506011206 51 9 3.0 9.0 0.00 0.00 0.00 39
20260506010206 51 326 3.0 9.0 0.00 0.00 0.00 38
20260506005205 51 10 6.0 12.0 0.00 0.00 0.00 37
20260506004206 52 16 5.0 10.0 0.00 0.00 0.00 37
20260506003209 52 355 6.0 14.0 0.00 0.00 0.00 37
20260506002206 53 334 7.0 15.0 0.00 0.00 0.00 36
20260506001206 54 347 3.0 13.0 0.00 0.00 0.00 36
20260506000206 53 319 5.0 12.0 0.00 0.00 0.00 36
20260505235206 54 356 2.0 12.0 0.00 0.00 0.00 37
20260505234206 53 10 5.0 9.0 0.00 0.00 0.00 36
20260505233205 53 329 6.0 15.0 0.00 0.00 0.00 36
20260505232206 54 328 6.0 13.0 0.00 0.00 0.00 35
20260505231206 54 27 4.0 14.0 0.00 0.00 0.00 35
20260505230205 55 295 7.0 17.0 0.00 0.00 0.00 34
20260505225206 55 345 6.0 16.0 0.00 0.00 0.00 34
20260505224206 55 337 5.0 17.0 0.00 0.00 0.00 35
20260505223206 55 25 4.0 20.0 0.00 0.00 0.00 34
20260505222206 56 328 4.0 15.0 0.00 0.00 0.00 34
20260505221205 56 325 7.0 16.0 0.00 0.00 0.00 33
20260505220206 56 324 4.0 16.0 0.00 0.00 0.00 33
20260505215205 57 9 6.0 22.0 0.00 0.00 0.00 32
20260505214206 57 356 9.0 16.0 0.00 0.00 0.00 30
20260505213206 56 322 7.0 24.0 0.00 0.00 0.00 31
20260505212205 57 319 7.0 18.0 0.00 0.00 0.00 31
20260505211206 57 307 6.0 14.0 0.00 0.00 0.00 32
20260505210206 56 338 7.0 18.0 0.00 0.00 0.00 31
20260505205205 56 327 11.0 18.0 0.00 0.00 0.00 31
20260505204206 57 342 5.0 16.0 0.00 0.00 0.00 32
20260505203206 56 344 5.0 14.0 0.00 0.00 0.00 30
20260505202206 56 341 8.0 18.0 0.00 0.00 0.00 30
20260505201205 57 335 6.0 21.0 0.00 0.00 0.00 33
20260505200206 57 334 10.0 21.0 0.00 0.00 0.00 30
20260505195206 58 336 6.0 13.0 0.00 0.00 0.00 31
20260505194206 57 325 6.0 18.0 0.00 0.00 0.00 30
20260505193206 57 303 7.0 13.0 0.00 0.00 0.00 32
20260505192206 56 278 6.0 20.0 0.00 0.00 0.00 31
20260505191205 55 307 6.0 18.0 0.00 0.00 0.00 32
20260505190206 54 315 10.0 22.0 0.00 0.00 0.00 30
20260505185206 54 312 10.0 21.0 0.00 0.00 0.00 33
20260505184206 55 20 10.0 20.0 0.00 0.00 0.00 31
20260505183206 55 303 6.0 17.0 0.00 0.00 0.00 32
20260505182206 55 326 9.0 25.0 0.00 0.00 0.00 30
20260505181206 55 302 7.0 18.0 0.00 0.00 0.00 34
20260505180206 55 316 7.0 17.0 0.00 0.00 0.00 33
20260505175205 55 302 6.0 14.0 0.00 0.00 0.00 33
20260505174206 55 329 8.0 16.0 0.00 0.00 0.00 34
20260505173205 55 337 10.0 22.0 0.00 0.00 0.00 31
20260505172205 54 329 7.0 20.0 0.00 0.00 0.00 32
20260505171206 54 318 8.0 21.0 0.00 0.00 0.00 34
20260505170205 54 325 5.0 18.0 0.00 0.00 0.00 34
20260505165206 53 293 5.0 15.0 0.00 0.00 0.00 35
20260505164206 53 295 7.0 16.0 0.00 0.00 0.00 36
20260505163209 53 337 5.0 13.0 0.00 0.00 0.00 37
20260505162206 53 308 3.0 15.0 0.00 0.00 0.00 38
20260505161206 52 342 5.0 16.0 0.00 0.00 0.00 38
20260505160206 52 320 5.0 13.0 0.00 0.00 0.00 40
20260505153205 52 330 7.0 13.0 0.00 0.00 0.00 36
20260505152206 51 9 6.0 17.0 0.00 0.00 0.00 36
20260505151206 51 348 6.0 15.0 0.00 0.00 0.00 34
20260505150206 50 348 8.0 15.0 0.00 0.00 0.00 32
20260505140206 49 303 4.0 14.0 0.00 0.00 0.00 45
20260505130206 47 325 6.0 15.0 0.00 0.00 0.00 48
20260505124205 47 330 4.0 10.0 0.00 0.00 0.00 51
20260505123209 45 334 3.0 9.0 0.00 0.00 0.00 53
20260505122206 45 284 3.0 6.0 0.00 0.00 0.00 56
20260505121206 44 271 3.0 8.0 0.00 0.00 0.00 55
20260505120205 44 225 1.0 3.0 0.00 0.00 0.00 58
20260505115206 43 247 1.0 3.0 0.00 0.00 0.00 60
20260505114206 43 257 0.0 2.0 0.00 0.00 0.00 59
20260505113206 42 353 1.0 2.0 0.00 0.00 0.00 60
20260505112205 41 223 0.0 0.0 0.00 0.00 0.00 61
20260505111206 40 223 0.0 0.0 0.00 0.00 0.00 64
20260505110205 40 223 0.0 0.0 0.00 0.00 0.00 63
20260505102206 43 223 0.0 1.0 0.00 0.00 0.00 58
20260505101206 43 307 0.0 1.0 0.00 0.00 0.00 56
20260505100206 44 278 0.0 0.0 0.00 0.00 0.00 57
20260505095206 44 278 0.0 0.0 0.00 0.00 0.00 56
20260505094206 45 278 0.0 0.0 0.00 0.00 0.00 54
20260505093206 46 284 0.0 3.0 0.00 0.00 0.00 53
20260505092206 46 23 0.0 2.0 0.00 0.00 0.00 52
20260505091205 46 282 1.0 3.0 0.00 0.00 0.00 52
20260505090206 46 292 1.0 7.0 0.00 0.00 0.00 51
20260505085206 46 340 2.0 6.0 0.00 0.00 0.00 51
20260505084206 46 338 3.0 7.0 0.00 0.00 0.00 49
20260505083209 46 335 4.0 8.0 0.00 0.00 0.00 49
20260505082206 47 348 2.0 7.0 0.00 0.00 0.00 48
20260505081205 47 338 2.0 12.0 0.00 0.00 0.00 47
20260505080207 48 354 5.0 9.0 0.00 0.00 0.00 45
20260505075205 48 337 6.0 16.0 0.00 0.00 0.00 45
20260505074206 48 16 5.0 13.0 0.00 0.00 0.00 46
20260505073206 48 5 6.0 14.0 0.00 0.00 0.00 46
20260505072205 49 23 5.0 14.0 0.00 0.00 0.00 46
20260505071206 49 10 3.0 17.0 0.00 0.00 0.00 46
20260505070206 49 20 4.0 12.0 0.00 0.00 0.00 46
20260505065206 49 44 6.0 12.0 0.00 0.00 0.00 47
20260505064206 50 59 1.0 12.0 0.00 0.00 0.00 48
20260505063206 50 4 6.0 12.0 0.00 0.00 0.00 47
20260505062206 51 356 4.0 15.0 0.00 0.00 0.00 47
20260505061206 51 10 5.0 16.0 0.00 0.00 0.00 47
20260505060206 52 357 5.0 13.0 0.00 0.00 0.00 48
20260505055205 52 11 5.0 17.0 0.00 0.00 0.00 47
20260505054206 53 22 7.0 20.0 0.00 0.00 0.00 47
20260505053205 53 1 9.0 20.0 0.00 0.00 0.00 46
20260505052206 54 357 6.0 12.0 0.00 0.00 0.00 46
20260505051206 54 352 4.0 12.0 0.00 0.00 0.00 45
20260505050206 55 9 6.0 14.0 0.00 0.00 0.00 44
20260505041206 56 3 2.0 10.0 0.00 0.00 0.00 42
20260505040206 57 331 3.0 10.0 0.00 0.00 0.00 41
20260505035206 57 352 2.0 9.0 0.00 0.00 0.00 41
20260505034206 57 316 6.0 12.0 0.00 0.00 0.00 40
20260505033206 57 310 5.0 9.0 0.00 0.00 0.00 39
20260505032206 58 344 4.0 13.0 0.00 0.00 0.00 38
20260505031206 58 312 3.0 10.0 0.00 0.00 0.00 38
20260505030205 58 273 2.0 9.0 0.00 0.00 0.00 37
20260505025206 59 322 3.0 8.0 0.00 0.00 0.00 35
20260505024205 59 319 3.0 13.0 0.00 0.00 0.00 34
20260505023206 59 290 4.0 14.0 0.00 0.00 0.00 33
20260505022206 60 309 5.0 14.0 0.00 0.00 0.00 32
20260505021206 60 326 8.0 18.0 0.00 0.00 0.00 31
20260505020206 60 330 6.0 17.0 0.00 0.00 0.00 31
20260505015206 61 320 5.0 16.0 0.00 0.00 0.00 30
20260505014206 61 319 5.0 18.0 0.00 0.00 0.00 31
20260505013205 62 300 5.0 15.0 0.00 0.00 0.00 30
20260505012205 62 335 9.0 20.0 0.00 0.00 0.00 29